Weather Service Report


951 
ASUS42 KFFC 010003
RWRGA 
WEATHER ROUNDUP FOR GEORGIA
NATIONAL WEATHER SERVICE PEACHTREE CITY GA
800 PM EDT TUE SEP 30 2014

NOTE: "FAIR" INDICATES FEW OR NO CLOUDS BELOW 12,000 FEET WITH NO
SIGNIFICANT WEATHER AND/OR OBSTRUCTIONS TO VISIBILITY. 

* = USE WITH CAUTION. THE STATIONS MARKED WITH AN ASTERISK MAY NOT
REPORT WEATHER SUCH AS PRECIPITATION, FOG, OR THUNDER AND ARE NOT 
QUALITY CONTROLLED BY NWS.

THE REMARK "TC" DENOTES TEMPERATURE READING IN DEGREES CELSIUS.

GAZ001>058-010100-
NORTH GEORGIA
  
CITY           SKY/WX    TMP DP  RH WIND       PRES   REMARKS
ATLANTA        PTCLDY    79  58  48 NW3       29.91R                  
6HR MIN TEMP:  78; 6HR MAX TEMP:  84;                                

ATHENS         CLEAR     70  64  81 CALM      29.90R                  
6HR MIN TEMP:  70; 6HR MAX TEMP:  82;                                

CHAMBLEE       PTCLDY    69  63  81 CALM      29.91R                  
6HR MIN TEMP:  69; 6HR MAX TEMP:  84;                                

PEACHTREE CITY CLEAR     70  67  90 CALM      29.91R                  
6HR MIN TEMP:  70; 6HR MAX TEMP:  83;                                

ROME           CLEAR     72  60  66 CALM      29.89R                  
6HR MIN TEMP:  72; 6HR MAX TEMP:  86;                                

WEST ATLANTA   PTCLDY    71  64  78 CALM      29.90R                  
6HR MIN TEMP:  71; 6HR MAX TEMP:  84;                                

GAINESVILLE    CLEAR     73  62  68 S3        29.93R                  
6HR MIN TEMP:  69; 6HR MAX TEMP:  82;                                

CARTERSVILLE   CLEAR     66  61  84 CALM      29.91R                  
6HR MIN TEMP:  66; 6HR MAX TEMP:  85;                                


  
CITY           SKY/WX    TMP DP  RH WIND       PRES   REMARKS
DALTON*        CLEAR     68  64  88 CALM      29.91R                  
MARIETTA       PTCLDY    73  62  68 W3        29.91S                  
KENNESAW*      PTCLDY    77  59  53 CALM      29.93R                  
$$

GAZ059>098-102>109-010100-
CENTRAL GEORGIA
  
CITY           SKY/WX    TMP DP  RH WIND       PRES   REMARKS
AUGUSTA-BUSH   CLEAR     72  65  78 CALM      29.87R                  
6HR MIN TEMP:  69; 6HR MAX TEMP:  84;                                

AUGUSTA-DANIEL CLEAR     77  64  64 N5        29.89R                  
6HR MIN TEMP:  77; 6HR MAX TEMP:  84;                                

COLUMBUS       CLEAR     73  66  78 E3        29.89R                  
6HR MIN TEMP:  73; 6HR MAX TEMP:  80;                                

MACON          CLEAR     68  68 100 CALM      29.89S                  
6HR MIN TEMP:  68; 6HR MAX TEMP:  78;                                

ROBINS AFB     CLEAR     70  68  94 SE2       29.89S                  

  
CITY           SKY/WX    TMP DP  RH WIND       PRES   REMARKS
LAGRANGE*      CLEAR     73  71  95 CALM      29.90S                  
SYLVANIA*      CLEAR     73  70  91 CALM      29.89R                  
MILLEDGEVILLE* CLOUDY    73  72  94 CALM      29.89R                  
$$

GAZ099>101-110>166-010100-
SOUTH GEORGIA
  
CITY           SKY/WX    TMP DP  RH WIND       PRES   REMARKS
SAVANNAH       PTCLDY    75  66  73 CALM      29.88R                  
6HR MIN TEMP:  74; 6HR MAX TEMP:  85;                                

VALDOSTA       CLOUDY    74  70  87 CALM      29.89R                  
6HR MIN TEMP:  74; 6HR MAX TEMP:  78;                                

ALMA           CLOUDY    75  69  81 CALM      29.88R                  
6HR MIN TEMP:  74; 6HR MAX TEMP:  79;                                

ST SIMONS      CLEAR     73  67  81 NE3       29.88R                  
6HR MIN TEMP:  73; 6HR MAX TEMP:  80;                                

FT STEWART     CLEAR     73  69  87 CALM      29.86R                  
ALBANY         CLOUDY    74  68  81 CALM      29.91R                  
HUNTER AFB     CLEAR     73  68  86 SE3       29.86R                  
MOODY AFB      CLOUDY    75  70  83 SE2       29.89R                  
BRUNSWICK      CLEAR     72  68  88 E3        29.88S                  

  
CITY           SKY/WX    TMP DP  RH WIND       PRES   REMARKS
BAINBRIDGE*    CLOUDY    79  72  78 NE3       29.89S                  
MOULTRIE*      CLOUDY    73  70  88 N5        29.90R                  
VIDALIA*       CLEAR     72  70  94 CALM      29.89R                  
WAYCROSS*      CLOUDY    78  74  88 CALM      29.88R                  
DOUGLAS*       CLOUDY    77  68  73 CALM      29.91R                  
$$

Return to Home page


Western Regional Climate Center, wrcc@dri.edu